GW5385 Weather Reports


time (UTC)temp
F
wind
direction
speed
knots
gust
knots
rain 1hr
in
rain 24hr
in
rain mn
in
humidity
%
barometer
mb
20260505170051 46 314 9.6 20.9 0.00 0.00 0.00 43 1021.4
20260505164550 44 347 9.6 16.5 0.00 0.00 0.00 46 1021.5
20260505163052 44 342 9.6 16.5 0.00 0.00 0.00 45 1021.6
20260505161549 44 345 7.0 13.9 0.00 0.00 0.00 51 1021.6
20260505153041 42 356 7.0 11.3 0.00 0.00 0.00 52 1021.8
20260505151535 40 324 4.3 11.3 0.00 0.00 0.00 59 1021.7
20260505124515 34 304 0.0 2.6 0.00 0.00 0.00 74 1021.1
20260505123015 33 303 0.0 2.6 0.00 0.00 0.00 74 1020.9
20260505121514 32 312 0.0 2.6 0.00 0.00 0.00 75 1020.9
20260505120016 30 323 0.0 0.9 0.00 0.00 0.00 76 1020.8
20260505114507 31 303 0.0 0.0 0.00 0.00 0.00 72 1020.9
20260505113003 33 328 0.0 0.9 0.00 0.00 0.00 68 1020.8
20260505111600 34 342 1.7 5.2 0.00 0.00 0.00 67 1020.8
20260505101547 37 354 3.5 6.1 0.00 0.00 0.00 58 1020.5
20260505100047 36 16 3.5 6.1 0.00 0.00 0.00 59 1020.5
20260505094514 37 15 2.6 3.5 0.00 0.00 0.00 62 1020.4
20260505093023 37 344 1.7 5.2 0.00 0.00 0.00 61 1020.2
20260505091507 37 22 3.5 7.8 0.00 0.00 0.00 60 1020.4
20260505090005 36 30 2.6 4.3 0.00 0.00 0.00 60 1020.2
20260505084505 37 42 0.9 1.7 0.00 0.00 0.00 58 1020.2
20260505083008 37 15 0.0 0.0 0.00 0.00 0.00 58 1020.2
20260505081501 38 346 0.0 0.9 0.00 0.00 0.00 57 1020.3
20260505080113 39 338 1.7 3.5 0.00 0.00 0.00 55 1020.2
20260505074607 39 9 2.6 5.2 0.00 0.00 0.00 56 1020.0
20260505073058 40 360 3.5 7.8 0.00 0.00 0.00 56 1020.1
20260505071558 40 352 1.7 4.3 0.00 0.00 0.00 54 1020.0
20260505070052 40 342 3.5 7.0 0.00 0.00 0.00 53 1020.0
20260505064547 38 339 1.7 5.2 0.00 0.00 0.00 53 1020.0
20260505063104 37 16 2.6 4.3 0.00 0.00 0.00 56 1020.0
20260505061604 35 335 0.0 2.6 0.00 0.00 0.00 57 1019.7
20260505060034 36 34 1.7 3.5 0.00 0.00 0.00 56 1019.8
20260505054533 36 48 3.5 5.2 0.00 0.00 0.00 56 1019.8
20260505053039 34 3 2.6 3.5 0.00 0.00 0.00 59 1019.7
20260505051508 33 334 0.9 2.6 0.00 0.00 0.00 62 1019.6
20260505041552 34 287 0.0 0.9 0.00 0.00 0.00 54 1019.7
20260505040046 37 353 0.9 1.7 0.00 0.00 0.00 52 1019.5
20260505034540 38 276 0.0 1.7 0.00 0.00 0.00 51 1019.4
20260505033037 40 37 0.0 1.7 0.00 0.00 0.00 49 1019.1
20260505031532 41 34 1.7 6.1 0.00 0.00 0.00 47 1018.9
20260505030030 43 42 5.2 8.7 0.00 0.00 0.00 45 1018.7
20260505024523 44 35 7.8 13.9 0.00 0.00 0.00 44 1018.4
20260505023020 45 27 11.3 15.6 0.00 0.00 0.00 42 1018.3
20260505021521 47 34 12.2 17.4 0.00 0.00 0.00 39 1018.0
20260505021518 47 42 12.2 17.4 0.00 0.00 0.00 39 1018.0
20260505020017 48 39 13.0 18.2 0.00 0.00 0.00 37 1017.8
20260505014518 50 27 13.9 19.1 0.00 0.00 0.00 33 1017.6
20260505013013 51 32 7.8 17.4 0.00 0.00 0.00 28 1017.4
20260505011517 52 358 8.7 15.6 0.00 0.00 0.00 28 1017.2
20260505010013 53 339 11.3 20.9 0.00 0.00 0.00 24 1017.3
20260505004511 53 342 9.6 21.7 0.00 0.00 0.00 25 1017.2
20260505003040 54 4 13.0 20.0 0.00 0.00 0.00 23 1017.1
20260505001540 54 341 13.0 20.0 0.00 0.00 0.00 22 1017.2
20260505000009 55 333 10.4 19.1 0.00 0.00 0.00 22 1017.1
20260504234509 55 335 13.9 22.6 0.00 0.00 0.00 24 1017.2
20260504233006 55 15 13.9 23.5 0.00 0.00 0.00 25 1017.1
20260504231505 55 330 11.3 20.0 0.00 0.00 0.00 25 1017.2
20260504230004 55 332 11.3 24.3 0.00 0.00 0.00 25 1017.3
20260504224503 54 310 9.6 20.0 0.00 0.00 0.00 25 1017.1
20260504223001 54 356 11.3 19.1 0.00 0.00 0.00 26 1017.2
20260504221600 54 343 10.4 25.2 0.00 0.00 0.00 29 1017.3
20260504220058 55 338 13.0 20.9 0.00 0.00 0.00 27 1017.3
20260504214558 55 333 12.2 18.2 0.00 0.00 0.00 30 1017.3
20260504213053 56 326 13.0 20.9 0.00 0.00 0.00 29 1017.4
20260504211551 54 12 10.4 20.0 0.00 0.00 0.00 31 1017.5
20260504210105 53 335 10.4 20.0 0.00 0.00 0.00 31 1017.7
20260504204557 54 36 13.9 21.7 0.00 0.00 0.00 31 1017.7
20260504203102 53 1 13.9 19.1 0.00 0.00 0.00 33 1017.6
20260504201546 53 340 8.7 17.4 0.00 0.00 0.00 35 1017.6
20260504200045 55 359 11.3 18.2 0.00 0.00 0.00 33 1017.5
20260504194546 55 335 10.4 20.0 0.00 0.00 0.00 32 1017.4
20260504193041 55 331 12.2 20.0 0.00 0.00 0.00 34 1017.6
20260504191542 56 332 10.4 20.0 0.00 0.00 0.00 34 1017.5
20260504190101 55 314 14.8 22.6 0.00 0.00 0.00 34 1017.5
20260504184540 56 14 10.4 19.1 0.00 0.00 0.00 36 1017.4
20260504183036 55 304 8.7 21.7 0.00 0.00 0.00 36 1017.3
20260504181540 55 348 13.0 22.6 0.00 0.00 0.00 35 1017.4
20260504180034 55 333 9.6 19.1 0.00 0.00 0.00 37 1017.5
20260504174532 54 345 9.6 19.1 0.00 0.00 0.00 37 1017.6
20260504173028 53 340 9.6 17.4 0.00 0.00 0.00 38 1017.6
20260504171526 53 352 7.8 16.5 0.00 0.00 0.00 39 1017.7